KB7STN Weather Reports


time (UTC)temp
C
wind
direction
speed
KPH
gust
KPH
rain 1hr
cm
rain 24hr
cm
rain mn
cm
humidity
%
barometer
mb
20260510024207 17 59 0.0 0.0 0.00 0.00 0.00 22 1007.5
20260510023707 17 59 0.0 0.0 0.00 0.00 0.00 21 1007.5
20260510023207 17 59 0.0 0.0 0.00 0.00 0.00 21 1007.5
20260510022707 18 59 0.0 0.0 0.00 0.00 0.00 20 1007.5
20260510022207 18 59 0.0 0.0 0.00 0.00 0.00 19 1007.3
20260510021707 18 59 0.0 0.0 0.00 0.00 0.00 17 1007.3
20260510021207 18 59 0.0 0.0 0.00 0.00 0.00 17 1007.3
20260510020707 19 60 0.0 0.0 0.00 0.00 0.00 17 1007.3
20260510020207 19 59 0.0 0.0 0.00 0.00 0.00 17 1007.3
20260510015707 20 59 0.0 0.0 0.00 0.00 0.00 16 1007.2
20260510015207 20 59 0.0 0.0 0.00 0.00 0.00 15 1007.1
20260510014707 20 60 1.6 4.8 0.00 0.00 0.00 15 1007.0
20260510014207 20 60 1.6 4.8 0.00 0.00 0.00 14 1007.0
20260510013707 20 60 0.0 8.0 0.00 0.00 0.00 15 1007.0
20260510013207 20 60 1.6 4.8 0.00 0.00 0.00 15 1007.0
20260510012707 21 59 1.6 4.8 0.00 0.00 0.00 15 1007.0
20260510012207 21 58 1.6 6.4 0.00 0.00 0.00 16 1007.0
20260510011707 21 55 1.6 8.0 0.00 0.00 0.00 16 1007.0
20260510011207 21 58 1.6 6.4 0.00 0.00 0.00 16 1007.0
20260510010707 21 81 1.6 4.8 0.00 0.00 0.00 15 1007.0
20260510010207 21 81 3.2 11.3 0.00 0.00 0.00 15 1007.0
20260510005707 21 59 3.2 12.9 0.00 0.00 0.00 15 1007.0
20260510005207 21 55 1.6 4.8 0.00 0.00 0.00 15 1007.0
20260510004707 21 56 1.6 4.8 0.00 0.00 0.00 15 1007.0
20260510004207 21 55 3.2 4.8 0.00 0.00 0.00 15 1007.0
20260510003707 21 55 3.2 9.7 0.00 0.00 0.00 15 1007.0
20260510003207 21 52 3.2 8.0 0.00 0.00 0.00 15 1007.1
20260510002707 21 34 3.2 8.0 0.00 0.00 0.00 16 1007.0
20260510002207 21 33 3.2 9.7 0.00 0.00 0.00 15 1007.1
20260510001707 21 36 3.2 9.7 0.00 0.00 0.00 15 1007.1
20260510001207 21 44 3.2 12.9 0.00 0.00 0.00 16 1007.2
20260510000707 21 31 3.2 8.0 0.00 0.00 0.00 15 1007.1
20260510000207 21 42 4.8 11.3 0.00 0.00 0.00 16 1007.2
20260509235707 21 74 4.8 12.9 0.00 0.00 0.00 14 1007.2
20260509235207 21 23 3.2 9.7 0.00 0.00 0.00 16 1007.2
20260509234707 21 23 3.2 11.3 0.00 0.00 0.00 16 1007.2
20260509234207 21 55 4.8 11.3 0.00 0.00 0.00 16 1007.2
20260509233707 21 16 4.8 11.3 0.00 0.00 0.00 16 1007.2
20260509233207 21 38 4.8 9.7 0.00 0.00 0.00 16 1007.1
20260509232707 21 53 4.8 17.7 0.00 0.00 0.00 15 1007.1
20260509232207 21 72 4.8 12.9 0.00 0.00 0.00 15 1007.2
20260509231707 21 50 4.8 9.7 0.00 0.00 0.00 15 1007.2
20260509231207 21 67 6.4 11.3 0.00 0.00 0.00 15 1007.3
20260509230707 21 21 6.4 11.3 0.00 0.00 0.00 14 1007.3
20260509230207 21 19 4.8 12.9 0.00 0.00 0.00 15 1007.3
20260509225707 21 126 4.8 9.7 0.00 0.00 0.00 15 1007.3
20260509225207 21 71 4.8 14.5 0.00 0.00 0.00 16 1007.3
20260509224707 21 30 4.8 14.5 0.00 0.00 0.00 17 1007.4
20260509224207 21 68 6.4 16.1 0.00 0.00 0.00 16 1007.4
20260509223707 21 82 6.4 12.9 0.00 0.00 0.00 16 1007.5
20260509223207 21 21 6.4 17.7 0.00 0.00 0.00 16 1007.5
20260509222707 21 37 4.8 14.5 0.00 0.00 0.00 17 1007.6
20260509222207 21 67 3.2 11.3 0.00 0.00 0.00 16 1007.5
20260509221707 21 17 4.8 14.5 0.00 0.00 0.00 16 1007.6
20260509221207 21 59 4.8 11.3 0.00 0.00 0.00 17 1007.6
20260509220707 21 55 4.8 16.1 0.00 0.00 0.00 16 1007.5
20260509220207 21 57 3.2 12.9 0.00 0.00 0.00 17 1007.5
20260509215707 21 51 3.2 12.9 0.00 0.00 0.00 17 1007.6
20260509215207 21 71 3.2 8.0 0.00 0.00 0.00 19 1007.7
20260509214707 21 52 3.2 12.9 0.00 0.00 0.00 17 1007.7
20260509214207 21 32 1.6 11.3 0.00 0.00 0.00 17 1007.8
20260509213707 21 37 1.6 11.3 0.00 0.00 0.00 18 1007.8
20260509213207 21 59 3.2 9.7 0.00 0.00 0.00 18 1007.7
20260509212707 21 77 3.2 12.9 0.00 0.00 0.00 19 1007.8
20260509212207 21 36 3.2 12.9 0.00 0.00 0.00 19 1007.8
20260509211707 21 96 4.8 12.9 0.00 0.00 0.00 18 1007.8
20260509211207 20 44 3.2 11.3 0.00 0.00 0.00 21 1007.8
20260509210707 20 63 3.2 12.9 0.00 0.00 0.00 19 1007.9
20260509210207 20 61 3.2 11.3 0.00 0.00 0.00 19 1007.8
20260509205707 21 30 3.2 11.3 0.00 0.00 0.00 21 1007.9
20260509205207 21 30 3.2 11.3 0.00 0.00 0.00 19 1007.9
20260509204707 21 44 3.2 8.0 0.00 0.00 0.00 19 1007.9
20260509204207 21 46 3.2 8.0 0.00 0.00 0.00 20 1007.8
20260509203707 21 55 4.8 14.5 0.00 0.00 0.00 22 1007.9
20260509203207 21 34 3.2 12.9 0.00 0.00 0.00 21 1008.0
20260509202707 20 46 3.2 8.0 0.00 0.00 0.00 23 1007.7
20260509202207 20 50 4.8 11.3 0.00 0.00 0.00 21 1007.9
20260509201707 21 75 4.8 14.5 0.00 0.00 0.00 21 1007.9
20260509201207 21 134 3.2 14.5 0.00 0.00 0.00 24 1007.9
20260509200707 21 74 3.2 14.5 0.00 0.00 0.00 22 1008.2
20260509200207 21 69 1.6 6.4 0.00 0.00 0.00 25 1008.2
20260509195707 21 70 3.2 8.0 0.00 0.00 0.00 23 1008.1
20260509195207 20 59 3.2 11.3 0.00 0.00 0.00 23 1008.3
20260509194707 20 74 3.2 11.3 0.00 0.00 0.00 22 1008.1
20260509194207 20 58 1.6 12.9 0.00 0.00 0.00 23 1008.1
20260509193707 20 53 1.6 11.3 0.00 0.00 0.00 21 1008.2
20260509193207 20 53 3.2 9.7 0.00 0.00 0.00 24 1008.2
20260509192707 20 18 3.2 11.3 0.00 0.00 0.00 22 1008.2
20260509192207 20 74 1.6 8.0 0.00 0.00 0.00 22 1008.2
20260509191707 20 60 1.6 1.6 0.00 0.00 0.00 26 1008.2
20260509191207 20 60 3.2 12.9 0.00 0.00 0.00 23 1008.3
20260509190707 20 37 3.2 6.4 0.00 0.00 0.00 23 1008.3
20260509190207 20 36 3.2 9.7 0.00 0.00 0.00 23 1008.3
20260509185707 19 34 3.2 12.9 0.00 0.00 0.00 25 1008.3
20260509185207 20 69 1.6 9.7 0.00 0.00 0.00 24 1008.4
20260509184707 20 69 1.6 9.7 0.00 0.00 0.00 24 1008.5
20260509184207 20 69 1.6 6.4 0.00 0.00 0.00 25 1008.5
20260509183707 20 65 1.6 12.9 0.00 0.00 0.00 22 1008.5
20260509183207 20 70 1.6 12.9 0.00 0.00 0.00 27 1008.5
20260509182707 20 41 4.8 8.0 0.00 0.00 0.00 24 1008.4
20260509182207 19 28 4.8 16.1 0.00 0.00 0.00 25 1008.5
20260509181707 19 57 3.2 9.7 0.00 0.00 0.00 24 1008.5
20260509181207 19 78 3.2 11.3 0.00 0.00 0.00 23 1008.5
20260509180707 19 95 3.2 8.0 0.00 0.00 0.00 25 1008.5
20260509180207 18 90 4.8 12.9 0.00 0.00 0.00 24 1008.5
20260509175707 18 74 3.2 11.3 0.00 0.00 0.00 24 1008.6
20260509175207 18 40 3.2 9.7 0.00 0.00 0.00 26 1008.5
20260509174707 18 40 3.2 9.7 0.00 0.00 0.00 26 1008.5
20260509174207 18 41 4.8 8.0 0.00 0.00 0.00 24 1008.5
20260509173707 18 61 4.8 9.7 0.00 0.00 0.00 22 1008.6
20260509173207 18 86 4.8 16.1 0.00 0.00 0.00 22 1008.6
20260509172708 18 53 4.8 12.9 0.00 0.00 0.00 23 1008.5
20260509172207 18 49 3.2 12.9 0.00 0.00 0.00 23 1008.5
20260509171707 18 61 3.2 8.0 0.00 0.00 0.00 27 1008.4
20260509171208 18 34 3.2 8.0 0.00 0.00 0.00 27 1008.5
20260509170708 17 31 3.2 8.0 0.00 0.00 0.00 25 1008.5
20260509170208 17 30 4.8 9.7 0.00 0.00 0.00 25 1008.5
20260509165708 18 60 4.8 9.7 0.00 0.00 0.00 26 1008.4
20260509165208 18 52 4.8 8.0 0.00 0.00 0.00 26 1008.3
20260509164708 17 48 3.2 17.7 0.00 0.00 0.00 26 1008.3
20260509164208 17 49 3.2 17.7 0.00 0.00 0.00 27 1008.4
20260509163759 17 35 4.8 11.3 0.00 0.00 0.00 26 1008.6
20260509163208 17 53 4.8 12.9 0.00 0.00 0.00 27 1008.5
20260509162708 17 64 4.8 16.1 0.00 0.00 0.00 26 1008.5
20260509162208 17 45 4.8 12.9 0.00 0.00 0.00 27 1008.5
20260509161708 17 77 4.8 12.9 0.00 0.00 0.00 28 1008.5
20260509161208 17 64 4.8 14.5 0.00 0.00 0.00 26 1008.4
20260509160708 17 59 4.8 11.3 0.00 0.00 0.00 27 1008.5
20260509160208 17 48 4.8 12.9 0.00 0.00 0.00 27 1008.4
20260509155708 17 62 4.8 11.3 0.00 0.00 0.00 26 1008.5
20260509155208 17 40 6.4 14.5 0.00 0.00 0.00 27 1008.5
20260509154708 17 42 6.4 17.7 0.00 0.00 0.00 26 1008.4
20260509154208 17 63 6.4 14.5 0.00 0.00 0.00 26 1008.5
20260509153708 17 53 6.4 16.1 0.00 0.00 0.00 26 1008.6
20260509153208 17 31 6.4 12.9 0.00 0.00 0.00 26 1008.5
20260509152708 17 77 6.4 16.1 0.00 0.00 0.00 26 1008.4
20260509152208 17 55 6.4 16.1 0.00 0.00 0.00 26 1008.4
20260509151708 17 46 6.4 12.9 0.00 0.00 0.00 26 1008.5
20260509151208 17 65 4.8 14.5 0.00 0.00 0.00 26 1008.4
20260509150708 17 32 3.2 12.9 0.00 0.00 0.00 27 1008.4
20260509150208 17 22 3.2 11.3 0.00 0.00 0.00 27 1008.3
20260509145708 17 44 3.2 8.0 0.00 0.00 0.00 28 1008.2
20260509145208 17 24 3.2 12.9 0.00 0.00 0.00 28 1008.2
20260509144708 17 351 3.2 8.0 0.00 0.00 0.00 29 1008.2
20260509144208 16 350 3.2 9.7 0.00 0.00 0.00 28 1008.2
20260509143708 16 349 3.2 6.4 0.00 0.00 0.00 29 1008.2
20260509143208 16 349 3.2 8.0 0.00 0.00 0.00 30 1008.2
20260509142708 16 348 3.2 9.7 0.00 0.00 0.00 30 1008.2
20260509142208 16 344 3.2 11.3 0.00 0.00 0.00 31 1008.2
20260509141708 16 334 1.6 8.0 0.00 0.00 0.00 30 1008.1
20260509141208 15 333 1.6 8.0 0.00 0.00 0.00 31 1008.1
20260509140708 15 324 1.6 6.4 0.00 0.00 0.00 32 1008.1
20260509140208 15 324 1.6 11.3 0.00 0.00 0.00 34 1008.1
20260509135708 15 323 1.6 8.0 0.00 0.00 0.00 33 1008.1
20260509135208 14 323 1.6 4.8 0.00 0.00 0.00 36 1008.0
20260509134708 14 323 3.2 6.4 0.00 0.00 0.00 36 1007.9
20260509134208 13 323 4.8 9.7 0.00 0.00 0.00 37 1007.8
20260509133708 13 323 4.8 12.9 0.00 0.00 0.00 38 1007.8
20260509133208 13 324 3.2 11.3 0.00 0.00 0.00 39 1007.8
20260509132708 12 324 3.2 9.7 0.00 0.00 0.00 40 1007.7
20260509132208 12 325 3.2 9.7 0.00 0.00 0.00 40 1007.6
20260509131708 12 325 3.2 9.7 0.00 0.00 0.00 39 1007.5
20260509131208 12 325 3.2 9.7 0.00 0.00 0.00 40 1007.5
20260509130708 12 325 3.2 9.7 0.00 0.00 0.00 41 1007.4
20260509130208 12 325 3.2 4.8 0.00 0.00 0.00 42 1007.4
20260509125708 12 325 3.2 11.3 0.00 0.00 0.00 42 1007.4
20260509125208 12 325 3.2 6.4 0.00 0.00 0.00 41 1007.3
20260509124708 12 325 3.2 6.4 0.00 0.00 0.00 40 1007.3
20260509124208 12 325 3.2 8.0 0.00 0.00 0.00 40 1007.2
20260509123708 12 324 4.8 11.3 0.00 0.00 0.00 39 1007.1
20260509123208 12 324 3.2 11.3 0.00 0.00 0.00 39 1007.1
20260509122708 12 324 1.6 9.7 0.00 0.00 0.00 39 1007.1
20260509122208 12 324 1.6 8.0 0.00 0.00 0.00 38 1007.0
20260509121708 12 324 1.6 8.0 0.00 0.00 0.00 38 1007.0
20260509121208 12 325 1.6 4.8 0.00 0.00 0.00 38 1006.9
20260509120708 12 324 1.6 6.4 0.00 0.00 0.00 38 1006.7
20260509120208 12 325 1.6 4.8 0.00 0.00 0.00 38 1006.7
20260509115708 12 324 1.6 6.4 0.00 0.00 0.00 36 1006.5
20260509115208 12 325 1.6 6.4 0.00 0.00 0.00 36 1006.6
20260509114708 12 325 3.2 9.7 0.00 0.00 0.00 37 1006.7
20260509114208 12 325 1.6 9.7 0.00 0.00 0.00 36 1006.7
20260509113708 12 325 1.6 6.4 0.00 0.00 0.00 36 1006.6
20260509113208 12 325 1.6 4.8 0.00 0.00 0.00 36 1006.5
20260509112708 12 325 1.6 6.4 0.00 0.00 0.00 36 1006.5
20260509112208 12 325 1.6 4.8 0.00 0.00 0.00 35 1006.5
20260509111708 13 325 3.2 4.8 0.00 0.00 0.00 34 1006.4
20260509111208 13 325 3.2 8.0 0.00 0.00 0.00 33 1006.3
20260509110708 13 321 1.6 11.3 0.00 0.00 0.00 35 1006.3
20260509110208 13 321 1.6 11.3 0.00 0.00 0.00 35 1006.3
20260509105708 13 321 1.6 6.4 0.00 0.00 0.00 37 1006.3
20260509105208 13 321 3.2 4.8 0.00 0.00 0.00 36 1006.4
20260509104708 13 321 3.2 8.0 0.00 0.00 0.00 36 1006.3
20260509104208 13 321 4.8 9.7 0.00 0.00 0.00 36 1006.3
20260509103708 13 321 3.2 9.7 0.00 0.00 0.00 35 1006.2
20260509103208 13 323 3.2 11.3 0.00 0.00 0.00 35 1006.2
20260509102708 13 323 1.6 6.4 0.00 0.00 0.00 35 1006.2
20260509102208 13 323 0.0 4.8 0.00 0.00 0.00 35 1006.2
20260509101708 13 323 0.0 4.8 0.00 0.00 0.00 35 1006.1
20260509101208 13 323 1.6 3.2 0.00 0.00 0.00 35 1006.1
20260509100708 13 323 1.6 4.8 0.00 0.00 0.00 34 1006.0
20260509100208 13 323 1.6 4.8 0.00 0.00 0.00 34 1006.0
20260509095708 13 323 3.2 4.8 0.00 0.00 0.00 34 1005.9
20260509095208 13 323 1.6 8.0 0.00 0.00 0.00 34 1005.9
20260509094708 13 323 1.6 8.0 0.00 0.00 0.00 34 1005.9
20260509094208 14 323 3.2 3.2 0.00 0.00 0.00 34 1005.9
20260509093708 14 323 3.2 8.0 0.00 0.00 0.00 33 1005.9
20260509093208 14 323 1.6 8.0 0.00 0.00 0.00 34 1005.8
20260509092708 14 323 1.6 4.8 0.00 0.00 0.00 33 1005.9
20260509092208 14 323 1.6 9.7 0.00 0.00 0.00 32 1005.8
20260509091708 14 323 1.6 6.4 0.00 0.00 0.00 32 1005.7
20260509091208 14 322 1.6 8.0 0.00 0.00 0.00 32 1005.5
20260509090708 15 324 1.6 8.0 0.00 0.00 0.00 32 1005.6
20260509090208 15 333 0.0 4.8 0.00 0.00 0.00 32 1005.5
20260509085708 15 333 1.6 4.8 0.00 0.00 0.00 31 1005.5
20260509085208 15 333 1.6 8.0 0.00 0.00 0.00 31 1005.4
20260509084708 15 334 1.6 4.8 0.00 0.00 0.00 32 1005.4
20260509084208 15 339 1.6 9.7 0.00 0.00 0.00 31 1005.3
20260509083708 15 344 0.0 1.6 0.00 0.00 0.00 31 1005.3
20260509083208 15 344 1.6 6.4 0.00 0.00 0.00 30 1005.1
20260509082708 15 344 1.6 9.7 0.00 0.00 0.00 31 1005.1
20260509082208 15 326 0.0 8.0 0.00 0.00 0.00 30 1005.1
20260509081708 16 327 0.0 0.0 0.00 0.00 0.00 30 1005.0
20260509081208 16 327 1.6 0.0 0.00 0.00 0.00 30 1005.0
20260509080708 16 327 1.6 6.4 0.00 0.00 0.00 29 1005.0
20260509080208 16 327 1.6 9.7 0.00 0.00 0.00 30 1005.0
20260509075708 16 327 0.0 0.0 0.00 0.00 0.00 30 1005.0
20260509075208 16 327 0.0 3.2 0.00 0.00 0.00 31 1004.9
20260509074708 16 327 0.0 6.4 0.00 0.00 0.00 31 1004.9
20260509074208 16 327 0.0 4.8 0.00 0.00 0.00 32 1004.9
20260509073708 16 327 1.6 8.0 0.00 0.00 0.00 33 1004.9
20260509073208 15 327 1.6 8.0 0.00 0.00 0.00 34 1004.8
20260509072708 15 327 0.0 4.8 0.00 0.00 0.00 35 1004.9
20260509072208 15 328 0.0 8.0 0.00 0.00 0.00 35 1004.7
20260509071708 15 328 0.0 11.3 0.00 0.00 0.00 35 1004.6
20260509071208 15 329 0.0 1.6 0.00 0.00 0.00 35 1004.7
20260509070708 15 329 0.0 0.0 0.00 0.00 0.00 34 1004.5
20260509070209 15 329 0.0 0.0 0.00 0.00 0.00 35 1004.3
20260509065708 16 329 0.0 0.0 0.00 0.00 0.00 32 1004.2
20260509065208 16 329 0.0 0.0 0.00 0.00 0.00 31 1004.0
20260509064709 16 329 0.0 0.0 0.00 0.00 0.00 31 1003.9
20260509064209 16 329 0.0 0.0 0.00 0.00 0.00 29 1003.9
20260509063708 16 329 0.0 0.0 0.00 0.00 0.00 29 1003.8
20260509063209 16 329 0.0 0.0 0.00 0.00 0.00 29 1003.8
20260509062709 16 329 0.0 0.0 0.00 0.00 0.00 30 1003.8
20260509062208 16 329 0.0 0.0 0.00 0.00 0.00 30 1003.9
20260509061709 16 329 0.0 0.0 0.00 0.00 0.00 30 1004.0
20260509061209 16 329 0.0 9.7 0.00 0.00 0.00 31 1004.1
20260509060709 16 329 0.0 0.0 0.00 0.00 0.00 30 1004.0
20260509060209 16 329 0.0 0.0 0.00 0.00 0.00 30 1004.0
20260509055709 16 329 0.0 6.4 0.00 0.00 0.00 30 1004.0
20260509055209 16 329 0.0 6.4 0.00 0.00 0.00 31 1004.1
20260509054709 16 329 0.0 6.4 0.00 0.00 0.00 30 1004.1
20260509054209 16 329 0.0 0.0 0.00 0.00 0.00 30 1004.0
20260509053709 16 329 0.0 0.0 0.00 0.00 0.00 29 1003.7
20260509053209 16 329 0.0 0.0 0.00 0.00 0.00 29 1003.7
20260509052709 16 329 0.0 0.0 0.00 0.00 0.00 30 1003.6
20260509052209 16 329 0.0 0.0 0.00 0.00 0.00 29 1003.6
20260509051709 16 329 0.0 0.0 0.00 0.00 0.00 28 1003.6
20260509051209 16 329 0.0 0.0 0.00 0.00 0.00 28 1003.6
20260509050709 16 329 0.0 0.0 0.00 0.00 0.00 28 1003.6
20260509050209 17 329 0.0 0.0 0.00 0.00 0.00 28 1003.6
20260509045709 17 329 0.0 0.0 0.00 0.00 0.00 28 1003.6
20260509045209 17 329 0.0 0.0 0.00 0.00 0.00 29 1003.6
20260509044709 17 329 0.0 0.0 0.00 0.00 0.00 28 1003.6
20260509044209 17 329 0.0 0.0 0.00 0.00 0.00 27 1003.5
20260509043709 17 329 0.0 0.0 0.00 0.00 0.00 28 1003.5
20260509043209 17 329 0.0 0.0 0.00 0.00 0.00 28 1003.4
20260509042709 17 329 0.0 0.0 0.00 0.00 0.00 28 1003.5
20260509042209 17 329 0.0 0.0 0.00 0.00 0.00 29 1003.4
20260509041709 17 329 0.0 0.0 0.00 0.00 0.00 29 1003.4
20260509041209 17 329 0.0 0.0 0.00 0.00 0.00 29 1003.3
20260509040709 17 329 0.0 0.0 0.00 0.00 0.00 29 1003.3
20260509040209 17 329 0.0 0.0 0.00 0.00 0.00 30 1003.4
20260509035709 17 329 0.0 0.0 0.00 0.00 0.00 30 1003.4
20260509035209 17 329 0.0 0.0 0.00 0.00 0.00 30 1003.4
20260509034709 17 329 0.0 0.0 0.00 0.00 0.00 30 1003.3
20260509034209 17 329 0.0 0.0 0.00 0.00 0.00 30 1003.2
20260509033709 17 329 0.0 0.0 0.00 0.00 0.00 30 1003.3
20260509033209 17 329 0.0 0.0 0.00 0.00 0.00 30 1003.2
20260509032709 17 329 0.0 0.0 0.00 0.00 0.00 30 1003.0
20260509032209 18 329 0.0 0.0 0.00 0.00 0.00 29 1003.0
20260509031709 18 329 0.0 0.0 0.00 0.00 0.00 29 1002.9
20260509031209 18 329 0.0 0.0 0.00 0.00 0.00 29 1002.9
20260509030709 18 329 0.0 0.0 0.00 0.00 0.00 29 1003.0
20260509030209 18 329 0.0 0.0 0.00 0.00 0.00 28 1003.0
20260509025709 18 329 0.0 0.0 0.00 0.00 0.00 29 1003.0
20260509025209 18 329 0.0 0.0 0.00 0.00 0.00 28 1002.9
20260509024709 18 329 0.0 0.0 0.00 0.00 0.00 27 1003.0